Location: Willingham
(52.3167°N, 0.0667°E)
Time: 18:08:43
(UTC+00:00)

Daily predictions for brighter satellites

Satellite Brightness Start Highest point End
(mag) Time Altitude Azimuth Time Altitude Azimuth Time Altitude Azimuth
Cosmos 1076 Rocket 3.6 20:29:32 10° NNW 20:33:53 85° W 20:38:13 10° S
SL-08 R/B 4.4 20:30:08 10° N 20:34:54 51° WNW 20:39:34 10° SW
Cosmos 158 Rocket 4.4 20:34:01 10° S 20:39:02 45° ESE 20:44:08 10° NE
USA 186 4.2 20:37:13 10° SW 20:39:06 17° W 20:41:00 10° NW
USA 245 4.0 20:36:04 10° SSE 20:40:17 61° ENE 20:45:29 10° N
Cosmos 2058 Rocket 3.1 20:39:54 10° S 20:44:19 64° E 20:48:45 10° NNE
Geosat 4.2 20:41:27 10° NNE 20:46:29 81° NW 20:51:29 10° SW
Helios 1A 2.8 20:43:26 10° NNE 20:47:30 81° ESE 20:51:32 10° SSW
Cosmos 1980 Rocket 2.8 20:46:25 10° NNW 20:51:49 46° NE 20:57:12 10° ESE
PSLV R/B 3.9 20:49:47 10° SE 20:52:50 43° ENE 20:55:58 10° N
Helios 1B rocket 4.2 20:51:42 10° SSW 20:54:48 25° W 20:57:55 10° NW
Resurs 01 Rocket 4.5 20:53:10 10° WSW 20:55:02 12° W 20:56:53 10° WNW
ATLAS CENTAUR R/B 1.3 20:51:33 10° SSW 20:55:06 48° SE 20:58:49 10° NE
Terra 2.1 20:51:29 10° S 20:56:09 69° WSW 21:00:51 10° NNW
NOSS 7 (H) 4.0 20:53:45 10° NW 20:56:39 86° NE 20:59:36 11° SE
USA 234 3.4 20:51:14 10° ENE 20:57:34 49° SE 21:03:51 10° SSW
Cosmos 1315 Rocket 4.3 20:55:13 10° SE 20:58:04 20° E 21:00:57 10° NE
SAR-Lupe-2 3.7 20:58:21 10° S 21:01:55 74° WSW 21:05:30 10° NNW
SL-16 R/B 4.1 20:57:58 10° NNW 21:02:22 22° NE 21:06:44 10° E
Meteor 2-2 Rocket 4.4 21:00:00 10° S 21:05:49 64° E 21:11:47 10° NNE
BlueWalker 3 2.1 21:03:33 10° WNW 21:07:05 51° SSW 21:10:12 13° SE
Cosmos 1125 Rocket 3.7 21:03:27 10° NNW 21:08:46 76° WSW 21:14:01 10° SSE
Cosmos 1346 Rocket 2.9 21:06:53 10° NNW 21:10:34 65° W 21:14:13 10° S
Cosmos 2322 Rocket 4.4 21:07:05 10° NNW 21:11:03 19° NNE 21:14:59 10° ENE
Cosmos 1400 Rocket 3.4 21:08:09 10° SSW 21:11:46 52° WNW 21:15:22 10° N
Cosmos 2366 rocket 4.1 21:08:40 10° N 21:15:03 71° ENE 21:21:09 11° SSE
SL-24 DEB 4.5 21:14:17 12° SSE 21:18:16 52° E 21:22:42 10° N
IRS-1C Rocket 4.3 21:15:44 10° S 21:21:00 73° WSW 21:26:18 10° NNW
Cosmos 44 3.5 21:16:46 10° NW 21:21:13 57° SW 21:25:13 14° SSE
Ariane Rocket 3.0 21:16:59 11° SSE 21:21:52 88° ENE 21:26:59 10° NNW
CZ-4C R/B 4.2 21:17:11 10° WNW 21:23:26 32° WSW 21:30:45 10° S
Cosmos 2298 Rocket 4.2 21:18:06 10° NNW 21:23:27 69° ENE 21:27:57 15° SE
SL-8 Rocket 4.0 21:17:28 10° N 21:23:41 87° E 21:29:41 11° S
Cosmos 1697 Rocket 3.0 21:18:31 10° NW 21:24:08 64° WSW 21:29:17 12° SSE
Lacrosse 5 rocket 2.1 21:21:06 10° WNW 21:24:16 31° SW 21:26:34 15° SSE
Cosmos 1238 Rocket 3.3 21:22:13 15° SSE 21:24:42 33° E 21:27:42 10° NNE
Cosmos 1570 Rocket 4.1 21:21:59 10° S 21:27:09 62° ESE 21:32:23 10° NNE
CENTAUR R/B 4.2 21:23:00 10° NW 21:29:58 42° NNE 21:38:14 10° E
Cosmos 2360 Rocket 4.3 21:26:47 10° NNW 21:30:54 20° NNE 21:35:01 10° E
ATLAS 3B R/B 4.4 21:30:06 13° SE 21:33:17 16° ESE 21:37:42 10° ENE
Cosmos-2242 3.4 21:29:27 10° SSW 21:33:40 63° WNW 21:37:56 10° N
Cosmos 1536 3.3 21:31:21 10° N 21:35:02 43° ENE 21:37:32 18° SE
Cosmos 2344 4.2 21:27:58 10° WSW 21:35:11 57° NNW 21:42:42 10° NE
Cosmos 2369 4.0 21:31:12 10° NNW 21:36:50 60° NE 21:41:29 15° SE
Cosmos 1867 4.0 21:31:46 10° NW 21:37:05 54° SW 21:41:23 15° SSE
Cosmos 405 Rocket 4.3 21:37:04 10° NNE 21:39:42 20° ENE 21:41:39 13° ESE
Cosmos 2150 Rocket 4.1 21:34:20 10° NNW 21:39:45 90° S 21:44:04 17° SSE
Cosmos 2221 2.7 21:37:30 16° SSE 21:40:35 49° E 21:44:37 10° NNE
SeaSat 1 2.5 21:36:39 16° SE 21:40:36 83° ENE 21:45:33 10° NNW
Okean O Rocket 4.0 21:38:09 10° SW 21:41:08 18° W 21:44:08 10° NW
Okean 1 3.3 21:42:38 18° SSE 21:45:06 51° E 21:48:41 10° NNE
Cosmos 2341 Rocket 4.3 21:39:04 10° NNW 21:45:18 68° W 21:51:18 11° S
Cosmos 2082 Rocket 3.0 21:42:05 16° SSE 21:45:51 33° ESE 21:50:47 10° NE
SPOT 3 Rocket 4.1 21:43:33 11° S 21:48:21 55° W 21:53:26 10° NNW
Cosmos 1674 3.0 21:48:35 19° E 21:48:35 19° E 21:50:14 10° NE
Cosmos 192 4.5 21:47:24 10° NNW 21:52:21 71° WSW 21:55:58 18° SSE
ISS -3.2 21:51:36 10° W 21:54:46 40° SSW 21:56:12 25° SSE
Cosmos 773 Rocket 4.0 21:51:31 11° S 21:56:28 62° ESE 22:01:32 10° NNE
Cosmos 1766 Rocket 3.8 21:55:08 10° N 21:59:30 58° ENE 22:02:12 22° SSE
Cosmos 2084 Rocket 3.3 21:55:37 10° SW 21:59:51 66° SE 22:04:04 10° NE
Cosmos 220 Rocket 4.0 21:57:20 18° S 22:00:09 51° ESE 22:04:06 10° NNE
COSMOS 2406 4.2 21:59:10 19° SSE 22:02:01 29° ESE 22:06:50 10° NE
ARIANE 6 FM1 Upper Stage 3.4 21:58:14 10° WSW 22:02:11 54° NW 22:06:12 10° NE
Cosmos 1356 Rocket 3.9 22:04:24 10° SSW 22:08:27 58° WNW 22:12:31 10° N
USA 59 Rocket 1.2 22:10:24 15° E 22:10:24 15° E 22:11:30 10° E
Cosmos 2333 Rocket 3.5 22:05:15 10° NNW 22:10:27 34° NE 22:15:36 10° ESE
NOSS 3-1 (C) 3.1 22:08:38 10° SW 22:13:33 84° NW 22:19:40 10° NE
Cosmos 1833 Rocket 3.5 22:08:16 10° SW 22:13:48 54° NW 22:19:22 10° NNE
MetOp-A 4.4 22:10:43 20° SE 22:14:07 53° ENE 22:19:08 10° N
Meteor 2-9 Rocket 4.2 22:14:37 10° NNW 22:20:16 87° E 22:24:06 22° SSE
Cosmos 1821 Rocket 4.2 22:14:22 10° NNW 22:20:27 67° W 22:25:07 17° S
PKM 3.4 22:18:49 10° SW 22:21:35 65° SSE 22:25:42 10° ENE
ALOS 2 3.9 22:19:44 16° ESE 22:22:27 30° ENE 22:26:17 10° N
Cosmos 1805 3.4 22:19:15 10° NNW 22:22:39 54° W 22:24:24 25° SSW
Cosmos 2219 Rocket 4.0 22:21:29 10° NNW 22:26:06 25° NE 22:30:42 10° E
Meteor 1-19 Rocket 4.4 22:25:46 21° S 22:29:55 66° E 22:35:54 10° NNE
ATLAS CENTAUR R/B 3.1 22:28:00 10° W 22:31:24 31° NNW 22:34:54 10° NNE
Cosmos 1315 Rocket 3.8 22:30:06 11° SW 22:33:35 43° WNW 22:37:19 10° N
Meteor 1-27 Rocket 4.0 22:30:55 24° SSE 22:34:09 53° E 22:39:32 10° NNE
Cosmos 1980 Rocket 3.0 22:30:35 10° NW 22:35:46 40° WSW 22:39:12 19° SSW
NOSS 2-1 (D) 3.7 22:36:14 29° ESE 22:36:14 29° ESE 22:38:37 10° ENE
Sich 1 3.8 22:32:19 10° N 22:36:21 40° ENE 22:38:23 24° SE
Helios 1B 4.5 22:33:30 10° NNE 22:37:49 78° ESE 22:40:12 26° S
Genesis I 2.6 22:36:56 10° NW 22:39:41 61° NE 22:40:24 40° ESE
USA 234 3.4 22:34:19 10° ENE 22:40:53 80° NNW 22:47:26 10° WSW
DELTA 2 DEB (DPAF) 4.3 22:37:53 10° N 22:41:47 57° WNW 22:44:39 17° SW
NOSS 3-1 (A) 3.0 22:38:15 10° SW 22:43:09 79° SE 22:49:11 10° NE
Meteor 2-15 4.5 22:37:21 10° N 22:43:30 74° ENE 22:47:14 25° SSE
BlueWalker 3 4.0 22:42:20 10° WSW 22:44:08 13° SW 22:44:08 13° SW
SL-16 R/B 2.3 22:41:44 10° NNW 22:47:26 74° ENE 22:51:05 23° SE
Cosmos 1975 2.5 22:45:09 10° N 22:48:51 79° ENE 22:50:13 37° SSE
Meteor 1-11 Rocket 3.9 22:44:35 10° NNW 22:50:03 62° W 22:53:25 23° S
Cosmos 783 Rocket 4.4 22:47:02 18° SSW 22:50:56 90° ESE 22:56:12 10° NNE
Cosmos 1500 Rocket 4.1 22:47:15 10° N 22:51:30 47° ENE 22:53:33 27° SE
Cosmos 1707 3.5 22:51:13 27° ESE 22:51:47 28° E 22:54:43 10° NNE
CZ-4C R/B 3.2 22:48:39 10° NNE 22:52:19 73° WNW 22:54:01 29° SSW
NOSS 2-1 (C) 3.0 22:55:39 43° SE 22:55:47 44° SE 22:58:40 10° ENE
Cosmos 2322 Rocket 2.7 22:50:45 10° NNW 22:56:22 57° NE 23:00:24 19° SE
Cosmos 2237 4.2 22:51:15 10° NW 22:56:57 72° WSW 23:00:06 27° SSE
Spot 4 3.8 22:56:44 29° SSE 22:59:10 80° ENE 23:03:58 10° NNW
Cosmos 1408 Rocket 3.6 22:56:06 10° N 23:00:27 68° ENE 23:02:20 32° SSE
ARIANE 5 R/B 2.6 23:01:14 31° S 23:03:13 70° WSW 23:07:35 10° NNW
Cosmos 1766 2.9 23:00:50 10° NNW 23:04:17 71° W 23:05:17 42° S
Cosmos 1842 Rocket 3.5 23:02:48 29° SSW 23:04:55 83° W 23:09:16 10° N
Cosmos 1908 2.7 23:02:24 10° N 23:05:40 76° ENE 23:06:26 49° SSE
Cosmos 1470 2.8 23:02:41 10° N 23:06:13 56° ENE 23:07:19 37° SE
Cosmos 1805 Rocket 3.7 23:03:12 10° N 23:07:38 64° ENE 23:09:35 32° SSE
Nadezhda 3 Rocket 4.4 23:06:38 17° SSW 23:11:26 61° WNW 23:17:40 10° N
Cosmos 2278 3.7 23:07:57 10° NNW 23:13:37 77° WSW 23:16:39 28° SSE
Cosmos 405 Rocket 3.5 23:10:48 10° NNW 23:13:58 34° W 23:14:58 28° SW
GP-B 4.1 23:10:41 10° NNE 23:14:44 35° E 23:16:31 25° SE
Exosat Rocket 3.5 23:10:30 10° NNW 23:15:40 86° ENE 23:18:24 28° SSE
Cosmos 2360 Rocket 2.4 23:10:23 10° NNW 23:16:00 65° NE 23:19:47 21° SE
Cosmos 1934 Rocket 4.2 23:10:04 10° NNW 23:16:14 65° W 23:20:02 25° SSW
SeaSat 1 4.2 23:16:18 15° SW 23:18:32 19° WSW 23:22:03 10° WNW
Cosmos 1674 4.3 23:18:16 11° W 23:18:57 12° WNW 23:19:55 10° NW
CZ-2C R/B 3.7 23:15:02 10° NNE 23:19:25 72° WNW 23:21:45 27° SSW
Meteor 2-8 Rocket 4.5 23:15:04 10° N 23:21:17 81° E 23:24:49 27° SSE
Cosmos 381 Rocket 4.5 23:17:17 23° SSW 23:21:30 83° ESE 23:27:56 10° NNE
CENTAUR R/B 3.3 23:13:48 10° NW 23:21:46 79° NE 23:31:03 10° SE
ATLAS 3B R/B 3.0 23:17:16 20° SSW 23:22:33 62° SE 23:30:16 10° NE
KORONAS-FOTON 3.4 23:22:30 47° S 23:23:25 87° ESE 23:26:56 10° NNE
USA 229 DEB 3.9 23:20:46 28° S 23:23:30 43° ESE 23:29:47 10° NE
USA 229 4.0 23:20:54 28° S 23:23:36 43° ESE 23:29:51 10° NE
ASTEX 1 4.2 23:19:14 10° NNE 23:23:52 39° E 23:26:06 25° SE
Spot 1 4.3 23:19:43 10° NNE 23:23:56 54° ESE 23:25:34 34° SSE
Cosmos 1743 Rocket 3.6 23:21:26 10° N 23:25:54 73° ENE 23:27:46 34° SSE
Cosmos 2082 Rocket 2.8 23:24:11 10° SW 23:29:41 55° NW 23:35:14 10° NNE
Cosmos 1605 Rocket 4.0 23:25:23 10° NNW 23:31:45 80° W 23:35:18 28° S
Landsat 5 3.7 23:29:57 10° N 23:34:05 67° WNW 23:36:07 29° SW
Cosmos 1842 2.8 23:36:29 48° SSW 23:37:21 84° WNW 23:40:50 10° N
Cosmos 1420 Rocket 4.0 23:35:13 10° NNW 23:40:34 83° ENE 23:43:26 28° SSE
USA-17 4.2 23:40:09 10° NW 23:43:15 79° NE 23:44:06 45° ESE
COSMOS 2406 3.6 23:41:09 15° SW 23:45:56 62° NW 23:51:38 10° NNE
Cosmos 1455 3.4 23:44:07 10° NNE 23:46:20 21° ENE 23:47:02 19° E
Cosmos 1300 2.2 23:46:45 10° N 23:49:56 74° E 23:50:26 57° SE
